Wind_Speed
19 19 19 18 17 17 15 15 14 14 15 15 14 14 14 14 14 15 15 14 14 16 18 17 15 14 14 14 14 13 12 12 13 14 14 14 14 14 15 17 18 19
21 19 19 18 17 17 16 15 15 14 15 16 16 15 14 14 13 14 14 14 15 16 18 19 18 16 15 15 16 15 14 14 14 14 14 13 13 14 15 16 17 17
22 21 20 19 18 17 16 15 16 15 15 16 17 17 17 16 15 14 14 14 14 14 16 18 20 18 16 17 18 17 17 17 16 15 15 14 14 14 14 15 15 15
23 22 21 20 19 18 17 17 17 16 15 16 17 18 18 18 17 16 16 16 16 15 15 16 19 19 17 18 18 18 18 19 18 17 16 15 15 15 15 15 14 14
22 22 22 21 21 20 19 19 19 18 17 16 16 17 18 19 19 18 17 17 17 17 16 16 18 18 18 18 18 18 19 19 17 16 16 16 16 16 16 15 14 14
21 21 21 22 22 22 21 21 21 20 19 18 17 17 18 19 19 18 18 18 16 16 16 16 17 17 17 18 18 18 18 17 14 14 15 15 15 16 16 15 14 14
21 21 21 22 22 22 22 22 22 22 21 20 19 18 18 19 19 20 21 20 18 17 17 17 18 18 16 16 18 18 18 17 16 16 17 16 16 17 16 15 16 16
20 21 22 23 22 22 22 23 23 23 24 23 22 20 19 19 20 21 22 23 22 20 19 18 18 20 19 17 17 17 18 17 16 17 19 18 18 18 17 17 17 18
18 19 21 21 20 21 22 22 23 24 25 26 25 23 21 21 22 23 22 23 23 22 22 21 20 21 21 20 19 20 19 18 16 16 17 16 17 18 17 18 19 19
17 17 18 18 19 20 20 21 23 24 26 26 26 25 24 23 23 23 22 23 24 24 24 24 24 24 23 22 22 21 21 20 19 18 17 17 17 16 17 19 19 17
18 17 17 17 18 19 20 21 21 23 25 26 26 26 26 24 24 24 23 24 25 25 25 25 25 25 25 24 22 22 21 21 21 20 20 19 18 18 19 20 19 18
20 20 18 18 18 18 19 21 21 21 22 24 24 25 24 24 24 24 25 25 26 25 25 25 25 25 26 24 23 22 22 22 21 21 21 21 20 19 20 21 22 21
19 21 21 20 19 18 19 21 20 20 21 22 22 22 23 23 23 23 24 26 27 27 26 25 26 26 26 25 25 24 23 22 21 21 21 21 21 19 19 20 22 22
16 18 20 21 21 20 20 21 21 21 22 22 21 21 22 23 23 23 23 24 26 28 27 26 26 26 26 26 26 25 24 23 22 22 22 22 21 21 20 21 22 23
13 14 16 18 19 19 19 21 22 23 23 22 22 22 22 23 23 23 23 24 26 26 26 26 26 25 25 26 25 25 25 24 22 21 22 22 21 20 19 20 22 22
13 14 15 16 17 17 18 20 22 21 21 21 22 23 24 24 23 24 25 26 27 27 27 27 27 26 25 25 25 24 23 23 22 21 21 20 19 18 18 19 19 19
15 16 16 16 15 15 17 18 18 19 20 20 21 23 25 25 25 25 26 27 28 29 28 28 28 26 24 24 25 24 22 20 19 19 18 18 17 18 19 18 16 17
15 15 15 15 13 13 13 14 15 17 19 20 21 22 24 24 24 25 27 27 28 29 29 28 26 24 22 23 24 22 20 18 16 15 15 15 16 18 18 16 16 17
14 14 14 14 13 12 11 12 14 15 16 16 17 19 20 19 20 22 24 27 27 28 28 27 23 21 21 22 22 20 18 18 17 15 14 15 17 18 16 15 15 15
12 13 13 12 11 11 10 12 13 13 13 14 16 17 18 18 18 19 22 27 29 25 25 26 23 21 21 21 19 18 17 17 18 17 15 15 16 16 14 13 14 15
11 11 11 11 11 11 12 13 13 13 14 15 17 19 18 18 18 16 16 23 27 23 21 23 21 19 20 20 18 17 17 17 18 17 16 15 15 14 14 14 15 16
9 9 10 11 12 13 13 13 13 13 14 16 18 19 18 17 17 14 11 14 19 18 18 19 18 18 19 19 18 17 17 17 17 16 16 15 15 14 14 15 15 14
8 8 10 12 12 11 10 11 12 13 15 17 17 17 17 16 14 13 12 11 14 15 16 16 16 17 18 18 18 17 17 17 18 17 17 16 15 15 15 15 14 14
9 9 11 12 11 9 9 10 11 12 14 16 16 15 15 13 11 11 12 12 14 15 15 14 15 16 16 16 16 16 16 18 18 16 16 17 16 16 14 12 12 14
10 11 12 12 10 9 10 10 10 11 12 13 14 13 13 11 10 10 10 10 12 13 13 13 14 14 14 13 13 14 15 17 17 15 16 17 16 13 11 10 12 15
11 12 13 13 11 11 11 10 11 12 12 12 12 12 11 11 10 10 9 10 10 10 10 11 12 12 12 11 12 14 14 15 15 15 16 16 13 10 9 10 11 13
Wind_Direction
219 223 224 222 222 223 223 224 225 224 223 224 224 225 226 226 228 229 228 230 233 235 236 240 245 249 252 255 258 260 259 255 256 260 260 259 262 266 269 264 255 256
218 222 225 224 223 222 223 227 229 228 228 228 226 224 225 226 229 233 233 233 236 238 240 241 242 243 247 250 253 257 259 261 263 264 261 259 261 266 269 267 262 262
219 222 225 226 226 226 226 231 235 235 233 234 233 230 230 230 232 235 235 235 235 237 239 240 241 242 245 250 253 254 256 261 263 262 260 259 261 265 267 267 264 261
223 223 224 226 228 230 232 233 236 237 236 236 236 236 235 234 233 234 237 237 237 236 235 235 237 239 243 249 252 251 253 259 260 257 256 257 258 261 263 265 267 263
225 225 225 227 229 230 233 234 235 236 236 236 236 237 239 240 237 234 235 238 240 239 236 233 234 235 239 245 250 251 252 256 256 252 250 251 253 257 259 263 265 262
227 228 229 231 231 232 234 235 236 235 234 236 237 237 239 242 241 233 230 234 237 237 233 229 230 231 236 246 251 251 250 248 247 244 244 248 254 256 254 258 263 259
231 231 233 236 238 240 241 241 240 237 235 234 236 237 239 242 242 234 231 232 234 233 230 229 232 232 234 242 250 251 247 242 239 239 240 246 257 259 253 254 258 257
239 238 240 242 244 246 247 245 241 238 237 236 234 236 238 239 239 235 234 236 236 234 232 231 235 239 241 239 241 245 246 242 240 242 244 247 254 257 254 254 256 255
249 248 249 251 250 248 250 250 245 240 239 239 238 238 239 238 237 236 235 238 239 237 236 236 236 242 246 244 243 245 246 245 240 241 244 244 246 251 256 257 257 256
247 247 251 255 253 250 252 255 253 248 245 243 242 242 242 241 240 238 236 239 240 239 239 240 239 241 244 244 246 248 249 248 246 244 246 244 241 244 248 253 255 254
240 239 244 249 249 250 253 255 254 252 249 246 244 245 245 244 242 240 238 239 242 243 243 243 241 241 243 245 246 247 247 248 250 251 251 249 245 241 241 244 247 247
241 243 244 243 240 241 248 254 253 251 250 247 245 247 248 247 245 243 242 244 246 246 244 243 241 241 244 246 246 245 246 247 248 251 252 251 248 244 244 248 251 253
242 245 247 246 245 239 241 249 252 249 247 245 244 247 248 247 247 246 246 248 247 246 245 243 240 240 242 244 244 243 245 246 246 247 249 251 250 247 246 249 254 257
241 242 243 246 247 242 238 243 249 251 248 243 243 246 247 247 248 248 248 248 246 247 246 243 240 240 241 242 243 244 244 246 247 247 249 252 254 254 251 250 254 256
240 240 240 242 243 242 240 243 248 251 250 248 246 247 249 249 247 247 248 249 248 248 246 242 237 235 237 240 244 245 244 245 248 250 250 252 256 258 255 252 255 255
239 240 238 239 242 242 240 241 243 246 250 251 251 252 252 250 247 247 248 248 248 248 245 241 236 234 237 240 242 242 241 243 246 247 248 251 255 256 252 249 252 253
234 237 237 235 236 235 234 237 240 245 249 250 250 253 255 254 252 250 248 245 246 246 245 242 239 235 236 239 240 239 237 238 242 245 247 251 254 253 250 247 247 249
232 235 237 234 229 225 227 233 240 246 250 250 251 255 258 260 260 256 250 246 245 244 242 240 239 234 232 236 238 237 233 232 235 239 244 248 249 250 249 245 242 243
230 229 234 236 232 227 224 232 242 250 253 251 254 260 263 266 268 265 257 245 237 237 237 233 230 229 231 236 238 235 232 232 232 234 238 243 246 249 251 247 240 236
233 229 231 235 236 235 235 242 251 256 256 256 261 265 267 269 272 275 265 242 225 220 224 224 222 224 231 238 241 237 233 232 231 232 236 242 245 248 250 246 238 233
233 227 223 222 228 238 245 251 256 259 259 261 264 264 265 267 267 271 267 242 223 213 216 220 219 223 232 238 241 238 234 233 231 229 232 238 240 240 237 236 235 236
224 218 215 215 225 238 246 250 253 259 264 266 267 266 264 261 255 252 253 236 220 214 217 218 217 227 236 238 238 235 232 231 228 224 226 233 236 232 229 233 236 237
218 210 212 220 228 236 244 248 252 257 263 266 266 264 260 256 247 241 237 227 218 218 219 217 220 229 234 234 233 231 227 226 225 223 224 227 227 225 227 231 232 231
221 214 220 230 234 233 236 243 247 251 256 259 259 256 254 252 243 235 232 225 221 221 222 222 226 228 227 226 224 222 220 220 221 220 220 221 222 223 225 228 230 233
225 220 225 234 235 233 234 232 233 235 238 243 250 253 251 246 233 224 219 214 214 217 218 220 223 221 215 212 209 208 211 212 211 209 207 208 214 221 224 228 236 242
228 223 226 231 230 230 229 222 219 220 219 222 233 241 245 242 227 213 206 201 200 201 200 201 203 199 193 192 194 196 200 203 203 203 204 204 211 222 229 237 248 255
Height
1541 1543 1545 1546 1547 1548 1550 1551 1552 1554 1555 1556 1558 1559 1560 1561 1562 1562 1564 1565 1566 1566 1567 1567 1568 1569 1570 1571 1571 1572 1572 1572 1572 1572 1572 1572 1572 1572 1571 1571 1570 1570
1539 1541 1543 1544 1545 1546 1548 1549 1550 1551 1552 1554 1555 1556 1557 1558 1559 1560 1561 1563 1563 1564 1564 1565 1566 1567 1568 1569 1569 1570 1569 1569 1569 1569 1570 1570 1569 1569 1569 1569 1568 1568
1537 1539 1541 1542 1543 1545 1546 1547 1548 1549 1550 1551 1552 1553 1555 1556 1557 1558 1559 1560 1561 1562 1562 1563 1563 1564 1565 1566 1567 1567 1567 1567 1567 1567 1567 1567 1567 1567 1567 1567 1566 1566
1536 1538 1539 1540 1542 1543 1544 1545 1546 1547 1548 1549 1550 1551 1552 1553 1554 1555 1556 1556 1557 1558 1559 1560 1561 1562 1563 1563 1564 1564 1565 1565 1565 1564 1564 1564 1565 1565 1565 1565 1564 1564
1535 1536 1537 1538 1539 1541 1541 1542 1543 1544 1546 1546 1548 1549 1549 1550 1550 1552 1553 1554 1554 1555 1556 1557 1558 1559 1560 1560 1561 1561 1562 1562 1561 1561 1561 1562 1562 1563 1563 1562 1562 1562
1533 1534 1535 1535 1536 1538 1538 1539 1541 1542 1543 1544 1545 1546 1547 1547 1547 1549 1550 1551 1552 1553 1554 1555 1555 1556 1557 1557 1558 1559 1559 1559 1559 1559 1559 1559 1560 1560 1560 1560 1560 1560
1530 1531 1532 1533 1533 1535 1535 1537 1538 1539 1540 1541 1541 1542 1544 1544 1545 1546 1547 1548 1549 1551 1552 1553 1553 1554 1555 1555 1555 1556 1556 1557 1557 1557 1557 1557 1557 1557 1557 1557 1557 1558
1527 1528 1529 1530 1531 1532 1533 1534 1535 1536 1537 1538 1538 1540 1540 1541 1542 1543 1544 1545 1546 1548 1549 1550 1550 1551 1552 1553 1553 1554 1554 1554 1555 1555 1555 1555 1555 1555 1555 1555 1555 1555
1525 1526 1527 1527 1528 1529 1530 1531 1532 1533 1534 1535 1536 1537 1537 1538 1539 1540 1541 1542 1543 1545 1546 1547 1548 1548 1549 1550 1551 1551 1552 1552 1553 1553 1553 1554 1554 1553 1553 1553 1553 1553
1522 1523 1524 1525 1525 1526 1527 1528 1529 1530 1531 1532 1533 1534 1534 1535 1536 1537 1538 1539 1540 1541 1542 1543 1544 1545 1546 1547 1548 1548 1549 1550 1550 1551 1551 1551 1552 1552 1552 1551 1551 1551
1518 1519 1520 1521 1522 1523 1525 1525 1526 1527 1527 1528 1529 1530 1531 1533 1534 1535 1536 1536 1537 1538 1540 1540 1541 1542 1543 1544 1545 1546 1546 1547 1547 1548 1548 1549 1549 1550 1550 1549 1549 1549
1515 1515 1516 1517 1518 1519 1521 1522 1522 1523 1524 1524 1526 1527 1528 1530 1531 1532 1533 1534 1535 1536 1537 1538 1538 1539 1540 1541 1542 1543 1543 1544 1545 1545 1545 1546 1546 1547 1547 1547 1546 1547
1511 1512 1513 1514 1514 1515 1517 1518 1519 1520 1520 1520 1522 1523 1524 1526 1527 1528 1530 1531 1532 1533 1534 1535 1536 1536 1537 1537 1538 1539 1540 1541 1542 1542 1542 1543 1543 1544 1544 1544 1544 1544
1508 1508 1509 1510 1511 1511 1513 1515 1517 1517 1517 1517 1517 1519 1520 1521 1523 1525 1526 1528 1529 1530 1531 1532 1533 1533 1534 1534 1535 1536 1537 1537 1538 1539 1539 1539 1540 1541 1541 1542 1541 1541
1505 1506 1506 1507 1507 1508 1510 1512 1513 1514 1514 1514 1514 1515 1517 1518 1519 1521 1523 1525 1526 1527 1528 1529 1529 1530 1530 1531 1532 1532 1533 1534 1535 1535 1536 1536 1537 1537 1538 1538 1538 1538
1503 1503 1503 1503 1504 1506 1507 1508 1509 1511 1511 1512 1512 1512 1513 1514 1516 1517 1519 1520 1522 1524 1524 1525 1525 1526 1527 1527 1528 1529 1530 1531 1531 1532 1532 1533 1534 1534 1535 1535 1535 1535
1500 1500 1499 1500 1502 1503 1505 1506 1507 1508 1508 1509 1509 1510 1510 1511 1512 1513 1514 1516 1518 1519 1521 1522 1522 1523 1524 1525 1525 1526 1527 1528 1528 1529 1529 1530 1531 1531 1531 1532 1533 1533
1497 1498 1498 1499 1500 1501 1503 1504 1505 1505 1506 1506 1507 1507 1508 1508 1508 1509 1510 1511 1512 1514 1516 1518 1519 1520 1522 1522 1523 1523 1524 1525 1526 1527 1528 1528 1528 1528 1529 1530 1531 1531
1496 1496 1496 1497 1499 1500 1501 1502 1502 1503 1504 1505 1506 1506 1506 1505 1505 1505 1505 1506 1508 1510 1513 1515 1516 1518 1520 1521 1521 1521 1522 1523 1523 1524 1525 1525 1525 1525 1526 1527 1528 1528
1494 1495 1495 1496 1497 1498 1499 1500 1501 1502 1503 1504 1504 1504 1503 1503 1503 1502 1501 1502 1504 1506 1509 1511 1513 1515 1517 1518 1519 1519 1519 1520 1521 1522 1523 1523 1523 1523 1524 1524 1525 1526
1493 1493 1494 1495 1495 1496 1497 1498 1499 1500 1501 1502 1502 1501 1501 1501 1501 1500 1498 1499 1501 1504 1506 1509 1510 1512 1514 1515 1516 1516 1516 1517 1518 1519 1520 1520 1520 1521 1521 1522 1523 1523
1491 1492 1493 1493 1493 1494 1495 1496 1497 1498 1499 1500 1500 1500 1499 1499 1499 1498 1497 1497 1500 1502 1504 1506 1508 1510 1512 1512 1513 1513 1514 1515 1516 1517 1518 1518 1518 1518 1519 1520 1520 1521
1490 1491 1491 1491 1492 1493 1493 1494 1495 1496 1498 1499 1499 1499 1498 1497 1497 1497 1497 1497 1499 1500 1501 1503 1505 1507 1508 1509 1510 1510 1511 1512 1514 1515 1515 1516 1516 1516 1517 1518 1519 1519
1489 1490 1490 1490 1491 1491 1492 1492 1493 1494 1496 1498 1499 1499 1498 1497 1496 1496 1496 1496 1497 1498 1500 1501 1502 1504 1505 1506 1507 1508 1509 1510 1511 1512 1513 1514 1515 1515 1515 1516 1517 1517
1488 1489 1489 1490 1490 1490 1490 1491 1492 1492 1494 1496 1497 1498 1497 1497 1496 1495 1495 1496 1497 1497 1498 1500 1501 1501 1503 1504 1505 1506 1507 1508 1509 1510 1512 1513 1513 1514 1515 1515 1515 1515
1487 1487 1488 1489 1489 1489 1489 1489 1490 1491 1492 1493 1495 1497 1497 1497 1495 1495 1495 1495 1496 1497 1498 1499 1500 1500 1501 1502 1503 1505 1506 1507 1508 1509 1510 1511 1512 1513 1514 1514 1514 1514